Location: Kui Tatk
(32.0384°N, 112.0812°W)
Time: 14:33:50
(UTC+00:00)

ISS - Visible Passes

Search period start: 14 May 2021 00:00
Search period end: 24 May 2021 00:00
Orbit: 417 x 422 km, 51.6° (Epoch: 14 May)

Date Brightness Start Highest point End Pass type
(mag) Time Alt. Az. Time Alt. Az. Time Alt. Az.
14 May -3.8 03:42:37 10° SSW 03:45:53 56° SE 03:46:50 39° ENE visible
14 May -0.1 10:17:49 10° NNE 10:18:13 10° NNE 10:18:37 10° NE visible
14 May -3.7 11:52:06 10° NW 11:55:28 84° NE 11:58:50 10° SE visible
15 May -2.8 02:55:39 10° S 02:58:32 28° SE 03:01:27 10° ENE visible
15 May -1.1 04:32:40 10° W 04:35:20 22° NW 04:38:00 10° NNE visible
15 May -2.4 11:04:47 10° NNW 11:08:01 42° NE 11:11:15 10° ESE visible
16 May -2.1 03:44:39 10° WSW 03:47:47 36° NW 03:50:56 10° NNE visible
16 May -1.4 10:17:39 10° NNW 10:20:29 24° NE 10:23:19 10° E visible
16 May -2.6 11:54:26 10° WNW 11:57:12 24° SW 11:59:58 10° S visible
17 May -3.4 02:56:58 10° SW 03:00:19 70° NW 03:03:39 10° NE visible
17 May -0.6 09:33:43 14° NE 09:33:43 14° NE 09:35:00 10° ENE visible
17 May -3.6 11:07:12 14° WNW 11:09:52 46° SW 11:13:06 10° SSE visible
18 May -0.5 03:48:08 10° WNW 03:49:56 14° NNW 03:51:45 10° N visible
19 May -0.9 02:59:39 10° W 03:02:18 21° NW 03:04:58 10° NNE visible
